• In Austria
  • List of Countries
  • For 7 days
  • Water Temperature
  • Satellite Maps
  • Weather Map
  • News
  • Weather Widgets
  • user-avatar
    Login

    Hourly Weather Kavkaz

    Today, 26 September, Wednesday

    Time Temperature Precipitation Wind Pressure Humidity
    00:00 +7°C° 0 mm 4 mps 762 mmHg 71%
    01:00 +7°C° 0 mm 4 mps 763 mmHg 72%
    02:00 +7°C° 0 mm 4 mps 763 mmHg 73%
    03:00 +6°C° 0 mm 4 mps 763 mmHg 74%
    04:00 +6°C° 0 mm 4 mps 764 mmHg 75%
    05:00 +5°C° 0 mm 4 mps 764 mmHg 76%
    06:00 +6°C° 0 mm 4 mps 764 mmHg 72%
    07:00 +7°C° 0 mm 4 mps 765 mmHg 68%
    08:00 +8°C° 0 mm 5 mps 765 mmHg 64%
    09:00 +9°C° 0 mm 5 mps 766 mmHg 57%
    10:00 +12°C° 0 mm 5 mps 766 mmHg 50%
    11:00 +13°C° 0 mm 5 mps 766 mmHg 43%
    12:00 +13°C° 0 mm 5 mps 766 mmHg 41%
    13:00 +14°C° 0 mm 5 mps 766 mmHg 38%
    14:00 +14°C° 0 mm 5 mps 766 mmHg 35%
    15:00 +13°C° 0 mm 5 mps 766 mmHg 36%
    16:00 +13°C° 0 mm 5 mps 766 mmHg 37%
    17:00 +12°C° 0 mm 4 mps 766 mmHg 38%
    18:00 +12°C° 0 mm 4 mps 766 mmHg 41%
    19:00 +11°C° 0 mm 3 mps 767 mmHg 44%
    20:00 +10°C° 0 mm 3 mps 767 mmHg 47%
    21:00 +9°C° 0 mm 2 mps 767 mmHg 49%
    22:00 +9°C° 0 mm 2 mps 767 mmHg 52%
    23:00 +8°C° 0 mm 2 mps 767 mmHg 54%

    Tomorrow, 27 September, Thursday

    Time Temperature Precipitation Wind Pressure Humidity
    00:00 +8°C° 0 mm 2 mps 767 mmHg 55%
    01:00 +7°C° 0 mm 2 mps 767 mmHg 56%
    02:00 +7°C° 0 mm 2 mps 767 mmHg 57%
    03:00 +7°C° 0 mm 2 mps 767 mmHg 58%
    04:00 +6°C° 0 mm 2 mps 766 mmHg 58%
    05:00 +6°C° 0 mm 2 mps 766 mmHg 59%
    06:00 +7°C° 0 mm 2 mps 766 mmHg 55%
    07:00 +8°C° 0 mm 3 mps 766 mmHg 51%
    08:00 +10°C° 0 mm 3 mps 766 mmHg 46%
    09:00 +11°C° 0 mm 4 mps 766 mmHg 42%
    10:00 +13°C° 0 mm 4 mps 765 mmHg 37%
    11:00 +14°C° 0 mm 5 mps 765 mmHg 33%
    12:00 +15°C° 0 mm 5 mps 764 mmHg 31%
    13:00 +16°C° 0 mm 5 mps 764 mmHg 30%
    14:00 +16°C° 0 mm 6 mps 763 mmHg 28%
    15:00 +16°C° 0 mm 5 mps 763 mmHg 30%
    16:00 +17°C° 0 mm 4 mps 763 mmHg 32%
    17:00 +15°C° 0 mm 4 mps 762 mmHg 34%
    18:00 +14°C° 0 mm 4 mps 762 mmHg 37%
    19:00 +13°C° 0 mm 3 mps 762 mmHg 39%
    20:00 +12°C° 0 mm 3 mps 762 mmHg 41%
    21:00 +12°C° 0 mm 3 mps 762 mmHg 43%
    22:00 +12°C° 0 mm 3 mps 762 mmHg 45%
    23:00 +11°C° 0 mm 3 mps 762 mmHg 47%

    Day after tomorrow, 28 September, Friday

    Time Temperature Precipitation Wind Pressure Humidity
    00:00 +12°C° 0 mm 2 mps 762 mmHg 47%
    01:00 +12°C° 0 mm 2 mps 762 mmHg 47%
    02:00 +12°C° 0 mm 2 mps 761 mmHg 48%
    03:00 +12°C° 0 mm 2 mps 761 mmHg 50%
    04:00 +10°C° 0 mm 2 mps 761 mmHg 52%
    05:00 +10°C° 0 mm 2 mps 760 mmHg 53%
    06:00 +12°C° 0 mm 2 mps 760 mmHg 52%
    07:00 +13°C° 0 mm 2 mps 760 mmHg 51%
    08:00 +15°C° 0 mm 2 mps 760 mmHg 49%
    09:00 +16°C° 0 mm 2 mps 760 mmHg 48%
    10:00 +18°C° 0 mm 2 mps 760 mmHg 47%
    11:00 +19°C° 0 mm 3 mps 759 mmHg 46%
    12:00 +20°C° 0 mm 3 mps 759 mmHg 45%
    13:00 +21°C° 0 mm 3 mps 758 mmHg 45%
    14:00 +22°C° 0 mm 3 mps 758 mmHg 44%
    15:00 +21°C° 0 mm 3 mps 757 mmHg 47%
    16:00 +21°C° 0 mm 3 mps 757 mmHg 49%
    17:00 +20°C° 0 mm 3 mps 757 mmHg 52%
    18:00 +19°C° 0 mm 3 mps 757 mmHg 56%
    19:00 +18°C° 0 mm 3 mps 757 mmHg 60%
    20:00 +17°C° 0 mm 3 mps 757 mmHg 64%
    21:00 +16°C° 0 mm 3 mps 757 mmHg 66%
    22:00 +16°C° 0 mm 3 mps 757 mmHg 68%
    23:00 +14°C° 0 mm 3 mps 757 mmHg 70%

    29 September, Saturday

    Time Temperature Precipitation Wind Pressure Humidity
    00:00 +15°C° 0 mm 2 mps 756 mmHg 72%
    01:00 +15°C° 0 mm 2 mps 756 mmHg 73%
    02:00 +14°C° 0 mm 2 mps 756 mmHg 74%
    03:00 +14°C° 0 mm 2 mps 756 mmHg 75%
    04:00 +14°C° 0 mm 2 mps 756 mmHg 76%
    05:00 +14°C° 0 mm 1 mps 756 mmHg 76%
    06:00 +15°C° 0 mm 1 mps 756 mmHg 71%
    07:00 +16°C° 0 mm 1 mps 756 mmHg 65%
    08:00 +18°C° 0 mm 1 mps 756 mmHg 59%
    09:00 +20°C° 0 mm 1 mps 756 mmHg 55%
    10:00 +21°C° 0 mm 1 mps 756 mmHg 50%
    11:00 +23°C° 0 mm 1 mps 756 mmHg 45%
    12:00 +23°C° 0 mm 1 mps 756 mmHg 43%
    13:00 +24°C° 0 mm 1 mps 756 mmHg 42%
    14:00 +23°C° 0 mm 0 mps 755 mmHg 40%
    15:00 +22°C° 0 mm 0 mps 755 mmHg 42%
    16:00 +24°C° 0 mm 1 mps 755 mmHg 44%
    17:00 +23°C° 0 mm 1 mps 756 mmHg 46%
    18:00 +22°C° 0 mm 1 mps 756 mmHg 48%
    19:00 +21°C° 0 mm 2 mps 756 mmHg 50%
    20:00 +20°C° 0 mm 2 mps 757 mmHg 53%
    21:00 +20°C° 0 mm 2 mps 757 mmHg 55%
    22:00 +19°C° 0 mm 3 mps 757 mmHg 58%
    23:00 +19°C° 0 mm 3 mps 757 mmHg 61%

    30 September, Sunday

    Time Temperature Precipitation Wind Pressure Humidity
    00:00 +18°C° 0 mm 3 mps 757 mmHg 64%
    01:00 +18°C° 0 mm 4 mps 757 mmHg 67%
    02:00 +17°C° 0 mm 4 mps 757 mmHg 70%
    03:00 +17°C° 0 mm 4 mps 758 mmHg 72%
    04:00 +15°C° 0 mm 4 mps 758 mmHg 73%
    05:00 +15°C° 0 mm 5 mps 758 mmHg 75%
    06:00 +15°C° 0 mm 5 mps 758 mmHg 73%
    07:00 +16°C° 0 mm 5 mps 759 mmHg 71%
    08:00 +16°C° 0 mm 5 mps 759 mmHg 69%
    09:00 +19°C° 0 mm 5 mps 759 mmHg 64%
    10:00 +20°C° 0 mm 4 mps 759 mmHg 59%
    11:00 +21°C° 0 mm 4 mps 759 mmHg 53%
    12:00 +22°C° 0 mm 4 mps 759 mmHg 51%
    13:00 +22°C° 0 mm 4 mps 759 mmHg 49%
    14:00 +23°C° 0 mm 4 mps 758 mmHg 46%
    15:00 +22°C° 0 mm 4 mps 758 mmHg 48%
    16:00 +21°C° 0 mm 4 mps 759 mmHg 49%
    17:00 +21°C° 0 mm 4 mps 759 mmHg 51%
    18:00 +20°C° 0 mm 4 mps 759 mmHg 54%
    19:00 +19°C° 0 mm 4 mps 759 mmHg 57%
    20:00 +17°C° 0 mm 4 mps 759 mmHg 60%
    21:00 +17°C° 0 mm 4 mps 759 mmHg 62%
    22:00 +15°C° 0 mm 4 mps 759 mmHg 64%
    23:00 +15°C° 0 mm 4 mps 759 mmHg 66%

    1 October, Monday

    Time Temperature Precipitation Wind Pressure Humidity
    00:00 +14°C° 0 mm 4 mps 759 mmHg 67%
    01:00 +14°C° 0 mm 4 mps 759 mmHg 69%
    02:00 +13°C° 0 mm 4 mps 759 mmHg 70%
    03:00 +13°C° 0 mm 4 mps 758 mmHg 70%
    04:00 +13°C° 0 mm 4 mps 758 mmHg 70%
    05:00 +12°C° 0 mm 4 mps 758 mmHg 70%
    06:00 +13°C° 0 mm 4 mps 758 mmHg 67%
    07:00 +14°C° 0 mm 4 mps 758 mmHg 63%
    08:00 +15°C° 0 mm 5 mps 758 mmHg 59%
    09:00 +17°C° 0 mm 5 mps 758 mmHg 55%
    10:00 +20°C° 0 mm 5 mps 758 mmHg 51%
    11:00 +21°C° 0 mm 5 mps 757 mmHg 46%
    12:00 +22°C° 0 mm 5 mps 757 mmHg 44%
    13:00 +23°C° 0 mm 5 mps 756 mmHg 42%
    14:00 +23°C° 0 mm 4 mps 756 mmHg 40%
    15:00 +23°C° 0 mm 4 mps 755 mmHg 43%
    16:00 +22°C° 0 mm 4 mps 755 mmHg 45%
    17:00 +21°C° 0 mm 3 mps 755 mmHg 47%
    18:00 +20°C° 0 mm 3 mps 755 mmHg 50%
    19:00 +19°C° 0 mm 4 mps 755 mmHg 53%
    20:00 +18°C° 0 mm 4 mps 754 mmHg 56%
    21:00 +18°C° 0 mm 4 mps 754 mmHg 58%
    22:00 +17°C° 0 mm 4 mps 754 mmHg 60%
    23:00 +17°C° 0 mm 4 mps 753 mmHg 61%
    Show more